Temperature
18 18 18 18 18 17 17 17 17 16 16 15 15 14 14 13 13 13 12 12 12 11 11 11 11 11 10 10 9 8 8 8 7 7 7 8 8 8 7 7 7 7 7
17 17 17 17 17 17 16 16 16 15 15 15 14 14 13 13 12 12 12 12 11 11 11 11 10 10 9 8 8 7 7 6 6 5 5 5 6 6 6 6 6 6 6
17 17 16 16 16 16 15 15 14 14 14 14 14 13 13 12 12 11 11 11 11 11 10 10 10 9 8 7 6 6 6 5 5 4 4 3 2 2 4 3 4 4 4
17 16 15 15 15 15 14 14 13 13 13 13 13 13 13 12 12 11 11 11 10 10 10 9 9 8 7 6 5 5 5 4 4 4 3 2 1 0 0 1 3 3 3
16 15 14 14 14 14 13 13 13 13 13 13 13 13 12 12 12 11 11 10 10 9 9 8 8 7 6 5 5 4 4 4 3 3 3 2 1 0 -1 -2 -1 0 1
14 14 13 13 12 12 12 12 12 12 12 12 12 12 12 12 11 11 10 9 9 9 8 8 7 6 5 4 4 4 3 3 3 2 2 1 -0 -1 -2 -3 -3 -3 -2
12 13 12 12 12 12 12 12 12 12 12 12 12 12 12 11 11 10 9 9 8 8 7 7 6 5 4 4 3 3 3 3 2 2 1 0 -1 -2 -2 -3 -4 -4 -4
11 11 12 11 11 11 12 12 12 12 11 11 11 11 11 10 9 9 8 8 8 7 7 6 5 4 4 3 3 3 2 2 1 1 0 -1 -1 -2 -3 -4 -5 -5 -4
10 10 11 11 11 11 11 12 12 12 11 11 11 10 10 9 9 8 8 7 7 6 6 5 4 3 3 3 2 2 1 1 1 0 -1 -2 -2 -3 -3 -4 -5 -6 -6
9 10 10 10 10 11 11 11 12 11 11 10 10 10 9 8 8 7 7 7 6 6 5 4 3 3 2 2 1 1 0 0 -0 -1 -2 -3 -4 -4 -4 -4 -5 -6 -7
8 9 10 10 10 10 11 11 11 11 10 10 9 9 8 8 7 7 6 6 5 5 4 3 3 2 2 1 0 -0 -1 -1 -2 -3 -4 -4 -5 -5 -5 -5 -6 -7 -7
8 9 10 9 10 10 10 10 10 10 10 9 8 8 7 7 6 6 6 5 4 4 3 2 2 1 1 0 -1 -1 -2 -2 -3 -4 -4 -5 -5 -6 -6 -6 -7 -7 -7
8 9 9 9 9 10 10 10 9 9 9 8 7 7 6 6 6 5 5 4 3 3 2 1 1 0 -0 -1 -1 -2 -3 -3 -4 -5 -5 -6 -6 -6 -7 -7 -8 -8 -8
8 9 9 9 9 9 9 9 8 8 8 7 6 6 6 5 5 4 4 3 2 2 1 1 0 -0 -1 -1 -2 -2 -3 -4 -5 -5 -6 -6 -7 -7 -8 -8 -8 -8 -8
8 9 9 9 9 9 8 8 8 7 7 6 6 5 5 5 4 3 3 2 2 1 0 -0 -1 -1 -1 -2 -3 -4 -4 -5 -5 -6 -6 -7 -7 -8 -8 -8 -8 -8 -8
8 9 9 9 9 8 8 7 7 6 6 5 5 4 4 4 3 2 2 1 1 0 -0 -1 -1 -2 -2 -3 -3 -5 -5 -6 -6 -7 -7 -7 -8 -8 -8 -8 -8 -8 -8
9 9 9 9 9 8 8 7 6 5 5 4 4 4 3 3 2 2 1 1 0 -0 -1 -1 -2 -2 -3 -3 -4 -5 -6 -6 -7 -7 -8 -8 -9 -9 -9 -9 -9 -8 -8
9 9 9 9 9 8 7 6 5 5 4 4 4 3 3 2 1 1 0 -0 -1 -1 -2 -2 -3 -3 -4 -4 -5 -6 -7 -7 -7 -8 -8 -9 -9 -9 -9 -9 -8 -8 -9
10 10 10 9 8 7 6 5 5 4 4 3 3 2 2 1 1 0 -0 -1 -1 -2 -2 -3 -3 -4 -5 -5 -6 -7 -8 -8 -8 -8 -9 -9 -9 -9 -9 -8 -9 -9 -9
11 10 9 9 8 7 6 5 4 4 3 3 2 2 1 0 0 -0 -1 -2 -2 -3 -3 -3 -4 -5 -5 -6 -8 -8 -8 -9 -8 -9 -9 -9 -9 -9 -9 -9 -9 -10 -10
10 10 9 8 7 6 5 4 4 3 2 2 1 1 0 -0 -1 -1 -2 -2 -3 -3 -3 -3 -4 -5 -6 -7 -8 -9 -9 -9 -9 -9 -9 -9 -10 -9 -9 -10 -10 -10 -10
9 9 8 7 6 5 4 3 3 2 2 1 1 0 -0 -1 -1 -2 -2 -3 -3 -3 -4 -4 -5 -6 -7 -8 -9 -9 -9 -9 -9 -10 -10 -10 -10 -10 -10 -10 -11 -11 -11
8 7 6 5 4 3 3 3 2 2 1 1 0 -0 -1 -1 -2 -3 -3 -3 -3 -4 -4 -6 -7 -7 -8 -8 -9 -9 -9 -9 -10 -10 -10 -10 -10 -11 -10 -11 -11 -11 -12
6 6 5 4 3 2 2 2 1 1 0 -0 -1 -1 -1 -2 -2 -3 -3 -4 -4 -5 -6 -7 -8 -8 -9 -9 -9 -9 -10 -10 -10 -10 -10 -11 -10 -11 -11 -11 -11 -11 -12
5 4 4 3 2 2 1 1 0 0 -0 -1 -1 -2 -2 -2 -3 -3 -4 -4 -5 -6 -8 -8 -9 -9 -9 -9 -10 -10 -10 -10 -10 -10 -11 -10 -11 -11 -11 -12 -12 -12 -12
4 3 3 2 2 1 1 0 -0 -1 -1 -1 -2 -2 -3 -3 -3 -3 -4 -4 -5 -6 -7 -8 -9 -9 -10 -10 -10 -10 -10 -10 -11 -11 -11 -12 -12 -13 -13 -13 -12 -12 -12
Wind_Speed
7 6 6 7 7 7 8 9 12 12 13 11 9 9 7 7 8 8 12 14 14 14 10 6 6 6 6 6 6 5 5 4 5 4 5 6 5 4 4 7 6 7 10
8 7 6 6 7 8 10 11 12 10 10 9 8 7 7 7 7 6 10 14 14 12 10 7 6 6 6 7 7 6 4 4 4 3 3 5 6 5 8 6 5 7 7
16 11 9 7 9 10 11 12 11 12 13 13 13 12 8 6 5 7 6 8 12 12 11 8 6 6 6 5 5 5 4 4 3 3 3 3 4 6 4 4 4 6 8
14 12 11 10 10 10 10 12 13 13 12 12 13 14 10 7 5 5 6 7 10 11 11 9 7 5 5 5 4 4 3 3 3 3 2 2 4 4 6 5 5 7 8
18 17 14 12 10 11 11 12 13 12 10 10 11 12 10 8 7 7 8 7 6 8 8 8 6 5 4 4 4 4 4 3 2 3 3 3 3 5 5 9 8 8 7
16 14 11 12 11 11 11 12 13 12 11 11 11 12 13 11 10 8 7 5 4 5 6 6 5 4 4 4 4 4 5 4 4 4 3 3 3 5 5 9 14 11 8
20 19 17 15 14 13 13 12 14 13 11 12 11 11 11 11 10 8 7 5 3 3 3 3 3 3 3 4 4 4 5 4 5 5 4 4 4 4 6 11 16 17 10
21 20 19 17 16 15 14 14 15 13 12 13 11 10 10 8 7 8 6 5 3 2 2 3 3 4 5 5 4 4 5 5 6 7 6 4 5 5 6 9 14 18 13
20 19 16 15 15 15 14 15 16 14 12 12 12 10 10 9 8 7 6 4 3 2 3 3 4 4 5 5 5 4 6 6 6 6 5 4 5 6 7 7 8 11 19
18 17 16 15 12 12 12 12 14 14 12 11 10 10 9 9 8 7 6 5 3 3 3 4 5 5 6 6 6 6 7 7 6 5 6 6 6 7 7 7 7 9 13
20 18 15 13 13 13 13 13 13 13 12 11 10 10 8 8 7 6 5 4 3 3 4 5 5 6 7 7 7 8 8 8 7 7 7 8 8 7 7 8 8 9 10
17 16 16 15 14 14 13 12 12 12 11 10 10 9 8 8 7 5 4 3 3 3 4 5 6 7 8 8 8 9 9 8 8 9 8 8 9 9 9 9 10 11 11
17 14 15 15 15 14 13 12 11 11 10 11 10 9 8 7 6 4 3 3 4 4 5 6 7 7 8 8 8 8 8 9 9 9 8 9 9 11 10 12 12 11 13
18 16 15 14 14 13 13 12 11 11 11 10 9 8 7 6 5 4 3 3 4 5 6 6 7 8 8 8 8 8 9 9 9 8 9 9 10 12 12 13 11 12 13
18 18 17 14 14 13 13 13 12 10 11 10 9 7 6 5 4 3 3 4 5 6 6 7 8 8 8 9 12 10 9 9 9 9 8 10 16 21 18 17 15 15 15
19 18 17 16 16 16 15 13 12 11 10 9 8 7 6 5 3 3 4 5 5 6 6 7 8 9 10 18 21 17 10 9 9 10 9 11 14 19 26 29 28 26 21
19 19 18 18 16 16 16 15 12 11 10 9 7 6 5 4 3 3 4 5 5 6 7 8 8 9 11 20 21 22 14 9 9 10 11 14 16 20 14 22 27 24 29
16 15 15 14 13 13 14 13 12 11 9 8 7 6 5 3 2 3 4 5 5 5 6 7 8 8 11 20 21 23 11 9 10 10 11 12 13 16 21 19 18 16 15
13 13 13 15 15 16 15 14 11 10 9 8 6 5 4 3 2 4 5 4 5 6 6 7 8 8 11 18 21 22 9 9 11 10 11 14 13 25 31 22 19 17 14
13 14 15 17 16 14 15 14 12 9 8 7 6 5 3 2 2 4 4 4 5 6 7 7 8 8 9 16 21 22 8 10 11 10 10 18 23 29 30 19 15 16 17
17 17 17 15 15 14 14 13 10 8 7 7 6 4 3 2 2 3 3 5 6 7 7 8 8 8 10 16 20 22 11 10 12 12 11 12 27 30 29 24 13 20 22
16 16 16 14 11 11 13 12 9 8 7 6 5 3 2 2 3 4 5 6 6 7 7 7 8 6 8 13 18 23 21 20 12 13 12 15 28 29 27 21 22 27 22
14 13 16 14 10 9 11 12 8 8 7 6 4 3 3 3 3 4 5 6 6 5 6 6 7 7 6 10 20 22 23 24 15 12 22 25 27 24 18 21 25 21 13
13 13 15 13 9 8 9 9 8 7 7 6 3 2 2 3 4 4 4 4 5 6 7 8 8 9 8 7 8 9 11 17 15 12 16 22 22 19 19 18 16 12 13
10 10 12 12 10 9 9 8 7 7 6 4 2 1 2 3 4 4 4 6 5 7 9 6 7 10 10 14 24 19 13 13 14 16 8 9 12 12 13 13 13 12 13
10 11 11 11 10 9 8 7 6 7 6 3 1 1 2 3 4 5 6 9 11 15 16 16 16 13 18 25 26 26 26 26 25 17 11 12 12 13 14 14 15 14 14
Wind_Direction
208 185 159 134 120 116 116 120 124 126 124 122 116 110 102 95 86 80 77 76 73 69 65 60 48 45 50 39 25 10 5 355 349 343 320 316 328 350 338 352 356 359 1
188 186 162 141 133 124 119 120 124 120 119 117 112 110 112 98 88 80 71 70 68 65 65 59 56 48 46 36 29 24 9 348 5 349 329 335 333 342 334 319 343 352 351
185 180 163 149 136 130 129 128 123 119 119 118 115 113 103 89 80 75 70 65 70 67 64 61 60 51 48 34 21 25 25 347 333 356 41 3 314 311 297 313 331 338 320
178 169 159 152 145 135 126 125 124 123 122 123 129 130 127 121 115 108 93 73 69 67 62 59 58 49 41 29 7 22 2 353 339 334 29 240 249 290 307 303 302 305 306
173 167 160 152 141 132 126 124 121 118 114 112 119 117 113 112 113 105 95 79 63 60 59 57 50 38 26 15 4 355 350 338 324 319 308 292 264 238 268 297 306 305 295
162 151 141 137 131 126 122 123 120 114 112 111 110 118 121 123 120 114 107 90 72 52 44 50 41 27 11 356 346 339 339 330 324 316 307 304 299 305 292 300 308 304 294
157 152 149 146 141 134 129 125 123 118 115 112 109 114 118 118 120 121 116 109 90 63 34 37 28 11 349 343 344 339 332 325 327 313 300 293 285 294 303 309 310 307 300
159 157 153 149 145 139 133 129 125 122 118 115 111 108 108 107 108 109 112 111 115 112 58 39 19 2 354 350 344 330 321 322 315 317 311 303 301 304 305 306 310 310 305
157 153 149 147 145 140 136 133 129 124 120 117 114 108 106 106 108 107 102 102 98 94 54 29 9 355 349 341 335 319 310 309 305 305 305 306 301 301 296 296 298 302 307
151 150 149 146 141 134 128 124 125 125 122 118 116 114 108 109 111 108 105 103 88 59 34 11 358 349 339 329 321 311 303 304 304 301 304 302 299 299 296 293 291 287 292
156 154 150 144 136 131 129 127 125 124 120 115 111 111 109 110 108 106 107 103 76 41 18 357 346 336 323 316 310 303 303 302 299 296 301 294 297 301 302 297 292 288 286
152 150 148 143 141 139 136 133 130 127 123 119 114 111 111 110 107 105 98 83 53 19 358 345 334 323 317 309 304 303 309 300 294 291 290 290 306 304 303 298 293 291 284
148 147 149 151 149 146 141 137 132 129 124 120 116 113 114 113 112 107 86 57 27 0 348 339 326 317 312 307 302 298 296 292 288 286 284 288 297 301 301 297 294 292 294
155 155 155 154 151 147 143 137 131 129 126 121 119 121 124 123 119 102 68 30 7 352 342 332 322 315 311 305 301 301 298 293 288 282 279 283 290 295 299 300 294 299 301
162 163 161 156 150 144 139 137 132 129 128 125 123 127 128 121 107 80 38 12 359 349 337 329 322 319 317 318 321 314 309 303 299 292 284 287 304 309 309 308 309 307 302
170 167 162 157 154 150 145 138 134 132 129 127 129 129 125 116 96 56 23 5 351 340 335 325 317 318 328 328 330 330 318 312 311 309 303 300 305 308 314 312 308 306 306
171 169 166 162 156 151 145 141 137 133 128 128 131 130 124 112 79 37 13 352 337 328 322 314 311 309 316 332 333 331 333 326 316 310 308 312 314 315 302 302 306 305 303
165 161 155 147 140 136 135 131 132 131 129 131 133 130 122 104 59 19 352 328 315 313 307 303 304 307 319 334 333 332 335 315 305 300 298 299 302 307 310 308 308 303 303
148 144 139 135 134 135 135 131 129 129 130 134 135 130 121 98 30 349 327 312 306 306 297 297 303 307 314 328 330 330 313 307 302 296 298 307 306 308 314 317 314 314 310
123 125 125 128 130 134 134 132 133 133 137 138 133 126 113 84 352 321 309 300 298 292 297 302 303 301 299 318 328 327 309 310 310 305 299 312 315 315 320 322 321 318 314
117 122 125 129 133 134 130 130 132 136 135 129 123 111 88 24 325 318 304 302 301 303 306 304 302 298 306 322 328 326 326 316 317 319 317 313 318 322 326 328 323 314 321
115 120 121 120 122 127 128 128 132 131 125 120 112 94 50 357 348 330 312 308 310 312 311 307 305 295 302 319 323 327 327 327 322 318 315 316 323 328 329 327 320 324 329
113 116 120 117 112 117 127 130 133 129 121 112 102 74 24 354 337 320 315 317 319 316 312 309 312 313 307 313 323 325 328 330 327 316 320 324 328 330 327 321 325 329 324
115 119 120 121 116 113 113 124 130 124 118 112 95 54 5 333 325 316 313 317 315 312 315 321 323 319 314 308 309 314 321 327 324 318 323 328 327 327 324 324 324 322 318
117 121 125 125 122 119 117 120 123 119 114 109 88 18 331 315 313 318 316 320 297 310 325 319 315 322 322 321 329 333 327 329 325 331 327 325 326 326 324 323 323 323 322
121 120 120 123 124 123 122 121 120 120 120 116 81 313 306 307 313 317 319 328 331 329 330 330 328 323 322 324 330 330 331 333 335 335 327 324 323 323 323 322 322 322 321
Height
1455 1456 1457 1458 1459 1460 1461 1463 1465 1468 1471 1475 1479 1483 1487 1490 1491 1493 1494 1495 1496 1497 1496 1495 1494 1492 1489 1486 1483 1480 1477 1474 1469 1466 1461 1460 1459 1456 1456 1455 1453 1450 1447
1451 1452 1453 1454 1456 1456 1458 1460 1462 1466 1470 1474 1478 1482 1485 1488 1490 1492 1493 1494 1495 1495 1495 1493 1492 1489 1486 1483 1480 1477 1474 1471 1467 1463 1458 1455 1453 1452 1451 1448 1445 1443 1440
1444 1447 1449 1451 1452 1454 1456 1458 1461 1465 1469 1473 1477 1481 1484 1486 1489 1491 1492 1493 1494 1494 1493 1491 1489 1487 1484 1481 1478 1475 1472 1469 1466 1463 1461 1456 1451 1445 1441 1440 1437 1435 1432
1438 1441 1444 1447 1449 1451 1455 1458 1461 1465 1469 1472 1476 1478 1481 1484 1487 1489 1491 1492 1492 1492 1491 1489 1487 1484 1481 1479 1476 1473 1470 1467 1464 1461 1459 1457 1453 1447 1437 1432 1430 1428 1424
1430 1435 1439 1443 1447 1450 1453 1457 1461 1465 1468 1472 1475 1478 1481 1483 1486 1488 1490 1490 1490 1490 1488 1486 1484 1481 1479 1476 1474 1471 1468 1465 1461 1458 1455 1452 1449 1445 1439 1427 1421 1419 1417
1424 1430 1436 1441 1444 1448 1452 1456 1460 1463 1468 1471 1475 1478 1480 1483 1485 1487 1488 1489 1488 1487 1486 1484 1481 1479 1476 1474 1471 1468 1465 1462 1459 1455 1451 1448 1444 1440 1434 1425 1416 1411 1408
1417 1425 1431 1437 1441 1445 1450 1454 1458 1462 1467 1471 1474 1478 1480 1482 1484 1485 1486 1487 1486 1485 1483 1481 1479 1476 1474 1471 1468 1465 1462 1458 1455 1451 1447 1443 1440 1436 1431 1423 1412 1403 1398
1412 1420 1427 1433 1438 1443 1448 1453 1457 1462 1466 1470 1474 1477 1480 1481 1483 1484 1485 1484 1484 1482 1480 1478 1476 1473 1471 1468 1465 1462 1458 1454 1450 1446 1442 1438 1434 1430 1426 1420 1411 1398 1388
1409 1417 1424 1431 1436 1441 1447 1452 1456 1461 1465 1469 1473 1476 1478 1480 1482 1482 1482 1482 1481 1479 1478 1475 1473 1471 1468 1464 1461 1457 1453 1449 1445 1440 1436 1432 1428 1423 1419 1414 1409 1402 1387
1409 1416 1423 1430 1436 1441 1447 1453 1457 1461 1465 1469 1472 1475 1477 1479 1480 1480 1480 1479 1478 1477 1475 1472 1470 1467 1464 1460 1456 1452 1448 1444 1439 1435 1430 1425 1421 1415 1411 1406 1402 1397 1390
1407 1415 1423 1430 1436 1441 1447 1452 1456 1461 1464 1468 1471 1473 1476 1477 1478 1478 1478 1477 1475 1473 1471 1469 1466 1463 1460 1456 1451 1447 1442 1438 1433 1429 1424 1419 1414 1408 1403 1399 1394 1390 1385
1407 1415 1422 1429 1435 1440 1446 1451 1455 1460 1463 1467 1470 1472 1474 1476 1476 1476 1475 1474 1472 1470 1468 1466 1463 1459 1455 1451 1446 1441 1437 1432 1427 1423 1418 1413 1408 1402 1397 1392 1386 1382 1378
1409 1416 1422 1428 1433 1439 1444 1450 1454 1458 1462 1465 1468 1471 1473 1474 1474 1474 1473 1471 1469 1467 1465 1462 1459 1455 1450 1446 1441 1436 1431 1426 1422 1417 1412 1407 1402 1395 1390 1385 1380 1375 1370
1408 1414 1421 1426 1432 1438 1443 1448 1453 1457 1461 1464 1467 1470 1471 1472 1472 1471 1470 1468 1466 1464 1461 1458 1454 1450 1445 1440 1435 1430 1425 1421 1416 1412 1407 1402 1396 1390 1384 1379 1374 1369 1362
1408 1413 1418 1424 1430 1436 1442 1447 1452 1456 1460 1463 1466 1468 1469 1470 1469 1468 1467 1465 1463 1461 1458 1454 1450 1445 1440 1435 1430 1425 1420 1415 1410 1406 1401 1396 1391 1386 1381 1375 1368 1362 1355
1405 1411 1416 1422 1428 1434 1439 1445 1450 1455 1459 1462 1465 1466 1467 1467 1467 1466 1464 1463 1460 1457 1454 1449 1445 1440 1435 1430 1425 1420 1415 1410 1404 1399 1394 1389 1384 1379 1374 1368 1362 1356 1350
1401 1407 1413 1420 1426 1432 1438 1444 1449 1454 1458 1461 1463 1465 1465 1465 1464 1463 1462 1460 1457 1453 1449 1445 1440 1435 1430 1425 1420 1415 1410 1404 1399 1393 1388 1382 1377 1372 1365 1358 1353 1348 1342
1401 1407 1413 1420 1426 1433 1439 1444 1449 1454 1457 1460 1462 1463 1463 1463 1462 1461 1459 1456 1453 1449 1445 1440 1436 1431 1425 1420 1415 1410 1404 1398 1393 1388 1383 1377 1370 1364 1358 1351 1344 1338 1332
1401 1407 1414 1420 1426 1433 1439 1444 1449 1453 1456 1459 1460 1461 1461 1460 1459 1458 1455 1452 1449 1445 1441 1436 1431 1426 1421 1415 1410 1404 1398 1392 1387 1382 1377 1372 1365 1358 1352 1345 1337 1329 1323
1403 1409 1415 1422 1427 1434 1439 1444 1448 1452 1455 1457 1458 1458 1458 1458 1457 1455 1452 1448 1445 1441 1436 1432 1427 1421 1416 1410 1405 1400 1394 1387 1380 1375 1370 1366 1359 1352 1346 1339 1331 1322 1315
1405 1411 1417 1423 1429 1434 1439 1444 1448 1451 1454 1455 1456 1456 1456 1455 1454 1451 1448 1445 1441 1436 1432 1427 1422 1417 1411 1405 1401 1396 1391 1385 1377 1370 1364 1358 1352 1346 1340 1333 1325 1318 1311
1407 1413 1419 1424 1431 1436 1440 1444 1448 1450 1452 1453 1454 1454 1454 1452 1450 1448 1444 1441 1436 1431 1426 1420 1415 1411 1406 1401 1396 1392 1388 1382 1375 1367 1359 1352 1347 1340 1333 1326 1319 1314 1306
1410 1416 1421 1426 1432 1437 1441 1444 1447 1449 1450 1451 1452 1452 1451 1449 1447 1444 1440 1436 1431 1425 1420 1415 1409 1405 1401 1396 1392 1387 1382 1376 1370 1362 1355 1348 1341 1333 1326 1320 1315 1308 1300
1414 1419 1423 1428 1433 1438 1442 1444 1446 1448 1449 1450 1450 1449 1448 1446 1444 1440 1436 1431 1426 1421 1415 1410 1405 1400 1395 1391 1386 1381 1375 1369 1363 1356 1348 1342 1335 1328 1322 1315 1309 1303 1297
1417 1422 1426 1429 1434 1438 1441 1443 1445 1446 1447 1448 1448 1447 1445 1443 1439 1436 1432 1427 1422 1418 1413 1408 1403 1397 1390 1386 1383 1377 1370 1364 1358 1351 1343 1336 1329 1322 1316 1311 1305 1299 1293
1419 1423 1427 1431 1435 1438 1440 1442 1444 1445 1446 1446 1445 1444 1441 1439 1435 1431 1428 1423 1420 1415 1410 1405 1401 1395 1390 1384 1378 1373 1366 1360 1353 1346 1339 1332 1326 1320 1314 1308 1301 1295 1289